TimeCST,TemperatureF,Dew PointF,Humidity,Sea Level PressureIn,VisibilityMPH,Wind Direction,Wind SpeedMPH,Gust SpeedMPH,PrecipitationIn,Events,Conditions,WindDirDegrees,DateUTC
12:53 AM,50.0,21.0,32,29.82,10.0,SSE,15.0,-,N/A,,Clear,160,2012-01-24 06:53:00
1:53 AM,48.0,21.0,34,29.81,10.0,South,12.7,-,N/A,,Clear,170,2012-01-24 07:53:00
2:53 AM,48.0,21.0,34,29.79,10.0,SSE,13.8,-,N/A,,Clear,160,2012-01-24 08:53:00
3:53 AM,46.9,21.0,36,29.77,10.0,SSE,11.5,-,N/A,,Clear,160,2012-01-24 09:53:00
5:53 AM,48.9,21.9,35,29.74,10.0,SSE,12.7,-,N/A,,Clear,150,2012-01-24 11:53:00
6:53 AM,48.0,23.0,37,29.77,10.0,SSE,4.6,-,N/A,,Clear,150,2012-01-24 12:53:00
8:53 AM,48.9,30.0,48,29.76,10.0,SE,10.4,-,N/A,,Clear,130,2012-01-24 14:53:00
9:53 AM,53.1,28.0,38,29.75,10.0,SE,6.9,-,N/A,,Clear,140,2012-01-24 15:53:00
10:53 AM,59.0,26.1,28,29.74,10.0,SE,5.8,-,N/A,,Clear,140,2012-01-24 16:53:00
11:53 AM,64.0,23.0,21,29.71,10.0,SSE,6.9,-,N/A,,Clear,160,2012-01-24 17:53:00
12:53 PM,68.0,19.9,16,29.67,10.0,South,12.7,-,N/A,,Clear,190,2012-01-24 18:53:00
1:53 PM,66.9,25.0,21,29.65,10.0,NW,6.9,-,N/A,,Clear,320,2012-01-24 19:53:00
3:53 PM,63.0,28.9,28,29.68,10.0,North,9.2,-,N/A,,Clear,350,2012-01-24 21:53:00
4:53 PM,64.0,23.0,21,29.70,10.0,NNW,11.5,-,N/A,,Clear,340,2012-01-24 22:53:00
5:53 PM,59.0,21.9,24,29.72,10.0,North,8.1,-,N/A,,Clear,360,2012-01-24 23:53:00
6:53 PM,55.9,28.0,34,29.79,10.0,WNW,6.9,-,N/A,,Clear,300,2012-01-25 00:53:00
7:53 PM,53.1,28.0,38,29.83,10.0,West,4.6,-,N/A,,Partly Cloudy,270,2012-01-25 01:53:00
8:53 PM,52.0,30.0,43,29.86,10.0,SW,6.9,-,N/A,,Mostly Cloudy,220,2012-01-25 02:53:00
9:53 PM,53.1,28.9,40,29.88,10.0,WSW,6.9,-,N/A,,Overcast,250,2012-01-25 03:53:00
10:53 PM,53.1,28.9,40,29.87,10.0,North,-9999.0,-,N/A,,Mostly Cloudy,0,2012-01-25 04:53:00
11:53 PM,51.1,30.0,44,29.83,10.0,West,6.9,-,N/A,,Partly Cloudy,260,2012-01-25 05:53:00